Total_Precipitation_Accumulation
0.99 1.18 1.02 0.69 0.64 0.54 0.49 0.57 0.48 0.32 0.31 0.39 0.38 0.29 0.21 0.20 0.26 0.34 0.36 0.38 0.32 0.32 0.36 0.41 0.49 0.57 0.73 0.82 0.87 0.96 0.97 1.11 1.23 1.35 1.54 1.58 1.51 1.37 1.32 1.29 1.27 1.24 1.31 1.37
1.12 0.99 0.54 0.37 0.44 0.53 0.58 0.67 0.52 0.35 0.30 0.44 0.43 0.33 0.23 0.21 0.25 0.33 0.32 0.37 0.37 0.33 0.38 0.44 0.51 0.56 0.71 0.84 0.86 0.96 1.02 1.10 1.15 1.24 1.36 1.51 1.52 1.43 1.37 1.33 1.29 1.24 1.24 1.29
0.84 0.57 0.31 0.46 0.59 0.72 0.68 0.60 0.49 0.44 0.41 0.49 0.55 0.50 0.31 0.25 0.22 0.29 0.33 0.36 0.42 0.42 0.42 0.46 0.53 0.57 0.68 0.82 0.86 0.91 1.02 1.11 1.15 1.28 1.40 1.54 1.73 1.67 1.56 1.50 1.39 1.27 1.22 1.21
0.60 0.36 0.36 0.56 0.65 0.73 0.71 0.41 0.42 0.49 0.73 0.80 0.68 0.78 0.38 0.27 0.25 0.29 0.34 0.37 0.42 0.42 0.42 0.46 0.51 0.58 0.64 0.73 0.85 0.92 1.04 1.13 1.16 1.31 1.45 1.43 1.57 1.59 1.41 1.30 1.34 1.30 1.23 1.19
0.75 0.42 0.43 0.56 0.48 0.53 0.56 0.36 0.47 0.60 0.82 0.94 0.70 0.77 0.43 0.25 0.31 0.30 0.32 0.33 0.40 0.43 0.35 0.39 0.45 0.49 0.59 0.67 0.80 0.91 1.06 1.18 1.21 1.25 1.42 1.46 1.39 1.39 1.39 1.38 1.34 1.36 1.34 1.26
0.62 0.42 0.49 0.45 0.33 0.41 0.55 0.65 0.79 0.90 1.30 1.53 0.62 0.59 0.49 0.42 0.49 0.38 0.30 0.31 0.39 0.43 0.36 0.36 0.37 0.42 0.55 0.67 0.79 0.89 1.01 1.13 1.20 1.22 1.32 1.46 1.40 1.33 1.33 1.39 1.41 1.38 1.40 1.35
0.78 0.56 0.47 0.41 0.55 0.69 0.92 1.38 2.03 2.18 2.16 1.29 0.33 0.44 0.54 0.45 0.43 0.44 0.40 0.35 0.39 0.42 0.40 0.36 0.34 0.40 0.48 0.57 0.71 0.81 0.96 1.05 1.11 1.15 1.22 1.27 1.38 1.33 1.24 1.20 1.26 1.34 1.38 1.34
0.89 0.75 0.55 0.48 0.62 0.88 0.98 1.22 1.62 1.61 1.10 0.48 0.26 0.43 0.47 0.35 0.29 0.28 0.29 0.35 0.39 0.42 0.38 0.31 0.32 0.39 0.44 0.47 0.56 0.69 0.79 0.96 1.09 1.14 1.17 1.19 1.26 1.36 1.26 1.17 1.15 1.21 1.27 1.21
0.90 0.63 0.39 0.36 0.37 0.57 0.87 0.94 0.81 1.06 0.76 0.51 0.41 0.37 0.30 0.15 0.14 0.17 0.21 0.30 0.39 0.42 0.39 0.32 0.32 0.37 0.40 0.47 0.52 0.63 0.69 0.84 1.03 1.16 1.17 1.17 1.19 1.26 1.26 1.18 1.14 1.14 1.16 1.18
0.96 0.76 0.38 0.35 0.47 0.61 0.70 0.85 1.04 1.44 1.20 0.68 0.42 0.39 0.42 0.27 0.23 0.20 0.21 0.28 0.38 0.41 0.45 0.38 0.32 0.34 0.37 0.43 0.50 0.54 0.64 0.73 0.86 1.05 1.20 1.18 1.14 1.14 1.20 1.22 1.19 1.16 1.12 1.14
0.94 0.98 0.61 0.55 0.77 0.82 0.79 1.07 1.33 1.38 1.03 0.81 0.54 0.51 0.51 0.40 0.34 0.29 0.26 0.29 0.37 0.40 0.43 0.38 0.32 0.30 0.34 0.40 0.51 0.56 0.60 0.67 0.76 0.87 1.04 1.14 1.13 1.13 1.19 1.22 1.17 1.18 1.16 1.14
0.89 1.15 0.81 0.50 0.48 0.49 0.68 0.92 1.15 1.40 1.01 0.63 0.57 0.54 0.40 0.33 0.31 0.28 0.27 0.26 0.29 0.33 0.36 0.36 0.32 0.32 0.34 0.41 0.49 0.58 0.63 0.63 0.68 0.76 0.89 1.02 1.09 1.12 1.16 1.16 1.17 1.22 1.23 1.19
1.31 1.68 1.39 0.92 0.76 0.71 0.80 0.74 0.80 0.98 0.95 0.63 0.52 0.46 0.26 0.20 0.20 0.22 0.25 0.25 0.25 0.29 0.35 0.37 0.37 0.36 0.37 0.43 0.47 0.54 0.62 0.61 0.64 0.75 0.85 0.98 1.07 1.08 1.10 1.06 1.08 1.23 1.34 1.32
1.63 1.72 1.22 0.99 0.82 0.77 0.71 0.57 0.56 0.87 1.07 0.61 0.36 0.32 0.21 0.18 0.19 0.21 0.26 0.27 0.27 0.29 0.32 0.37 0.42 0.43 0.38 0.40 0.44 0.49 0.57 0.63 0.65 0.71 0.83 0.93 1.02 1.00 0.98 0.96 0.96 1.09 1.26 1.36
1.36 1.37 0.63 0.33 0.27 0.36 0.43 0.39 0.42 0.57 0.55 0.48 0.29 0.26 0.25 0.24 0.25 0.26 0.28 0.27 0.27 0.27 0.31 0.36 0.42 0.43 0.44 0.45 0.46 0.48 0.53 0.63 0.69 0.69 0.79 0.84 0.92 1.00 0.96 0.91 0.94 1.02 1.15 1.22
1.25 1.24 0.63 0.34 0.21 0.27 0.34 0.28 0.29 0.32 0.28 0.26 0.20 0.23 0.24 0.23 0.21 0.22 0.23 0.25 0.27 0.27 0.28 0.31 0.35 0.41 0.47 0.50 0.51 0.54 0.57 0.62 0.69 0.69 0.75 0.78 0.87 0.97 1.01 0.93 0.93 1.03 1.13 1.16
1.23 1.26 1.09 0.62 0.27 0.48 0.54 0.33 0.29 0.31 0.29 0.25 0.29 0.30 0.25 0.22 0.22 0.25 0.25 0.25 0.27 0.26 0.25 0.25 0.31 0.40 0.45 0.49 0.49 0.56 0.60 0.63 0.68 0.70 0.72 0.77 0.86 0.90 0.96 0.97 0.98 1.06 1.15 1.16
1.03 1.21 1.47 0.99 0.71 0.97 0.51 0.25 0.24 0.29 0.31 0.28 0.26 0.22 0.21 0.24 0.26 0.29 0.27 0.28 0.28 0.28 0.30 0.28 0.33 0.40 0.41 0.45 0.43 0.48 0.53 0.64 0.71 0.72 0.70 0.75 0.82 0.85 0.94 0.98 1.00 1.10 1.18 1.14
0.57 1.09 1.62 1.35 0.97 0.51 0.29 0.26 0.34 0.43 0.43 0.31 0.23 0.17 0.16 0.19 0.24 0.31 0.26 0.26 0.30 0.31 0.34 0.33 0.35 0.40 0.37 0.40 0.41 0.40 0.44 0.57 0.69 0.74 0.69 0.70 0.77 0.84 0.92 0.97 1.03 1.11 1.19 1.14
0.56 1.02 1.71 1.46 1.08 0.53 0.35 0.23 0.27 0.39 0.55 0.32 0.23 0.20 0.19 0.23 0.35 0.35 0.29 0.27 0.28 0.28 0.31 0.35 0.35 0.36 0.35 0.37 0.39 0.37 0.41 0.49 0.62 0.70 0.63 0.66 0.72 0.77 0.87 0.93 1.01 1.07 1.08 1.07
0.98 1.47 1.65 1.21 0.96 0.41 0.27 0.24 0.29 0.61 0.68 0.35 0.28 0.27 0.27 0.33 0.37 0.32 0.30 0.31 0.32 0.33 0.31 0.32 0.34 0.36 0.37 0.38 0.38 0.39 0.42 0.46 0.55 0.66 0.62 0.66 0.69 0.73 0.82 0.90 0.93 0.99 1.04 1.03
0.81 1.08 1.04 0.92 1.00 0.52 0.30 0.35 0.61 0.70 0.38 0.30 0.28 0.27 0.28 0.28 0.25 0.24 0.27 0.32 0.39 0.38 0.33 0.34 0.34 0.34 0.35 0.36 0.39 0.41 0.44 0.46 0.52 0.60 0.62 0.67 0.72 0.74 0.78 0.84 0.85 0.89 0.99 1.03
0.58 0.77 0.85 0.80 0.66 0.44 0.37 0.46 0.50 0.41 0.34 0.27 0.27 0.27 0.27 0.25 0.24 0.26 0.29 0.33 0.39 0.41 0.36 0.35 0.36 0.33 0.33 0.35 0.41 0.46 0.48 0.48 0.54 0.58 0.60 0.67 0.75 0.79 0.80 0.79 0.81 0.86 0.93 1.01
0.46 0.46 0.57 0.53 0.39 0.30 0.29 0.29 0.29 0.26 0.27 0.26 0.26 0.27 0.26 0.26 0.24 0.26 0.29 0.32 0.35 0.38 0.39 0.39 0.39 0.37 0.35 0.35 0.40 0.48 0.52 0.50 0.54 0.58 0.58 0.64 0.70 0.76 0.79 0.75 0.73 0.77 0.87 0.99
0.38 0.40 0.45 0.40 0.27 0.25 0.23 0.23 0.22 0.20 0.19 0.19 0.20 0.20 0.22 0.23 0.23 0.26 0.29 0.32 0.36 0.38 0.40 0.41 0.42 0.42 0.40 0.38 0.41 0.48 0.53 0.51 0.54 0.53 0.52 0.57 0.60 0.71 0.81 0.80 0.75 0.74 0.76 0.93
0.26 0.33 0.39 0.35 0.25 0.30 0.26 0.22 0.21 0.21 0.20 0.20 0.21 0.19 0.17 0.20 0.23 0.24 0.26 0.29 0.37 0.42 0.42 0.42 0.42 0.43 0.45 0.44 0.46 0.49 0.52 0.50 0.50 0.51 0.50 0.53 0.56 0.63 0.74 0.78 0.80 0.87 0.86 0.89